This demonstration page uses our WeatherBlox Daily Observations layout. Learn more.

Left ArrowRight Arrow

Hourly Observations for February 11, 2020

Temp ( °F °C ) Dew Point ( °F °C ) Humidity (%) Winds ( mph kmh ) Pressure ( in mb ) Visibility ( mi km ) Precip ( " mm )
12:59 am 00:59 Cloudy 64 17.8 55 12.8 73 73 SSW 12 19 30.12 1020 10 16 0.00 0.00
1:59 am 01:59 Cloudy 64 17.8 55 12.8 73 73 SSW 12 19 30.10 1019 10 16 0.00 0.00
2:59 am 02:59 Cloudy 64 17.8 57 13.9 78 78 SSW 10 17 30.07 1018 10 16 0.00 0.00
3:59 am 03:59 Cloudy 64 17.8 56 13.3 75 75 S 8 13 30.04 1017 10 16 0.00 0.00
4:59 am 04:59 Cloudy 64 17.8 57 13.9 78 78 S 10 17 30.03 1017 10 16 0.00 0.00
5:59 am 05:59 Cloudy 65 18.3 57 13.9 76 76 SSW 12 19 30.03 1017 10 16 0.00 0.00
6:47 am 06:47 Cloudy with Light Rain 62 16.7 59 15 90 90 SSW 9 15 30.03 1017 4 6 0.00 0.00
6:59 am 06:59 Cloudy with Light Rain 62 16.7 59 15 90 90 S 9 15 30.03 1017 3 5 0.02 0.51
7:59 am 07:59 Cloudy with Light Rain 62 16.7 60 15.6 93 93 SW 6 9 30.02 1017 4 6 0.15 3.81
8:23 am 08:23 Cloudy with Light Rain 62 16.7 60 15.6 93 93 S 8 13 30.01 1016 3 5 0.00 0.00
8:59 am 08:59 Cloudy with Light Rain 63 17.2 60 15.6 90 90 SSW 10 17 29.99 1016 5 8 0.10 2.54
9:35 am 09:35 Cloudy 64 17.8 61 16.1 90 90 SSW 13 20 29.98 1015 7 11 0.00 0.00
9:59 am 09:59 Cloudy with Light Rain 64 17.8 62 16.7 93 93 SW 12 19 29.98 1015 3 5 0.03 0.76
10:01 am 10:01 Cloudy with Light Rain 64 17.8 62 16.7 93 93 SW 12 19 29.97 1015 2 3 0.00 0.00
10:59 am 10:59 Cloudy with Light Rain 65 18.3 63 17.2 93 93 SSW 12 19 29.95 1014 2 3 0.04 1.02
11:29 am 11:29 Cloudy with Mist and Fog 66 18.9 63 17.2 90 90 SSW 10 17 29.91 1013 5 8 0.00 0.00
11:59 am 11:59 Cloudy with Light Rain 67 19.4 64 17.8 91 91 SSW 14 22 29.88 1012 4 6 0.11 2.79
12:21 pm 12:21 Cloudy with Light Rain 68 20 65 18.3 90 90 SSW 14 22 29.86 1011 7 11 0.00 0.00
12:59 pm 12:59 Cloudy 69 20.6 64 17.8 84 84 SW 22 35 29.85 1011 8 13 0.02 0.51
1:24 pm 13:24 Cloudy with Light Rain 68 20 65 18.3 90 90 SSW 14 22 29.84 1010 3 5 0.00 0.00
1:59 pm 13:59 Cloudy with Light Rain 68 20 66 18.9 93 93 SSW 14 22 29.81 1009 3 5 0.06 1.52
2:47 pm 14:47 Cloudy 69 20.6 65 18.3 87 87 WSW 10 17 29.80 1009 8 13 0.00 0.00
2:59 pm 14:59 Cloudy 66 18.9 63 17.2 90 90 W 13 20 29.81 1010 8 13 0.02 0.51
3:35 pm 15:35 Cloudy with Light Rain 63 17.2 61 16.1 93 93 NW 13 20 29.82 1010 6 10 0.00 0.00
3:50 pm 15:50 Cloudy with Rain 62 16.7 60 15.6 93 93 WNW 16 26 29.83 1010 2 3 0.00 0.00
3:59 pm 15:59 Cloudy with Light Rain 62 16.7 60 15.6 93 93 NW 13 20 29.82 1010 3 5 0.06 1.52
4:27 pm 16:27 Cloudy with Light Rain 61 16.1 60 15.6 97 97 WNW 9 15 29.83 1010 6 10 0.06 1.52
4:59 pm 16:59 Cloudy with Light Rain 61 16.1 59 15 93 93 NW 8 13 29.84 1011 6 10 0.04 1.02
5:25 pm 17:25 Cloudy with Light Rain 61 16.1 59 15 93 93 NW 8 13 29.86 1011 3 4 0.00 0.00
5:40 pm 17:40 Cloudy with Mist and Fog 61 16.1 59 15 93 93 NW 7 11 29.86 1011 4 6 0.05 1.27
5:45 pm 17:45 Cloudy with Mist and Fog 61 16.1 59 15 93 93 NNW 5 7 29.86 1011 2 3 0.05 1.27
5:59 pm 17:59 Cloudy with Light Rain 61 16.1 59 15 93 93 WNW 3 6 29.86 1011 3 5 0.05 1.27
6:29 pm 18:29 Cloudy with Light Rain 61 16.1 59 15 93 93 WNW 3 6 29.88 1012 3 5 0.00 0.00
6:59 pm 18:59 Cloudy with Mist and Fog 61 16.1 59 15 93 93 Calm 29.89 1012 3 5 0.07 1.78
7:38 pm 19:38 Cloudy 61 16.1 59 15 93 93 WNW 7 11 29.92 1013 9 14 0.00 0.00
7:59 pm 19:59 Cloudy 61 16.1 59 15 93 93 NW 7 11 29.92 1013 8 13 0.00 0.00
8:28 pm 20:28 Cloudy with Mist and Fog 60 15.6 59 15 96 96 NNW 7 11 29.92 1013 6 10 0.00 0.00
8:43 pm 20:43 Mostly Cloudy with Fog 54 12.2 53 11.7 97 97 NNE 13 20 29.94 1014 1 2 0.00 0.00
8:59 pm 20:59 Mostly Cloudy with Fog 53 11.7 52 11.1 96 96 NNE 10 17 29.94 1014 1 1 0.00 0.00
9:22 pm 21:22 Cloudy with Mist and Fog 52 11.1 51 10.6 97 97 NNE 12 19 29.96 1015 2 3 0.00 0.00
9:38 pm 21:38 Cloudy with Mist and Fog 52 11.1 51 10.6 97 97 NE 8 13 29.97 1015 4 6 0.00 0.00
9:59 pm 21:59 Cloudy with Mist and Fog 51 10.6 50 10 96 96 NNE 9 15 29.96 1015 4 6 0.00 0.00
10:59 pm 22:59 Cloudy with Mist and Fog 50 10 49 9.4 96 96 NNE 7 11 30.00 1016 5 8 0.00 0.00
11:59 pm 23:59 Cloudy with Mist and Fog 51 10.6 49 9.4 92 92 NNE 7 11 30.02 1017 5 8 0.00 0.00

Powered by AerisWeather